Powrót do katalogu

STARLINK-5224

AktywnyŁącznośćVLEO
NORAD 55397·PAYLOAD·🇺🇸 United States

Wystrzelony Jan 31, 2023 z Vandenberg Space Force Base

Loading…

Następne Przeloty (najbliższe 24 godziny)

TLE

ŚwieżeSource: CelesTrak SupGP

Epoka: Sep 15, 2026, 02:21 UTC

1 55397C 23014G   26258.09840278  .00734620  00000+0  58716-1 0  2587
2 55397  69.9995 287.0386 0003133 267.1993 183.9712 14.99784202    17

Śledź STARLINK-5224 w czasie rzeczywistym z AllMySat

Download on the App Store